Find Starlink 11552

NORAD ID: 62907 Int'l Des: 2025-027 Owner: SPXS Country: US Constellation: starlink operational
LEOCIRCULAR

Live Position

Loading 3D Globe...

About Starlink 11552

Description loading...

Upcoming Passes

Passes for default location (London). Set your location on the main map for personalized predictions.

Altitude History

Loading altitude history...

Two-Line Element Set

1 62907U 25027A 26126.12287485 .00261712 00000-0 19656-2 0 9992
2 62907 43.0013 1.5856 0002761 249.6277 110.4294 15.71007595 72229
Epoch: May 6, 2026 • Age: 7 hours

Current Status

Altitude 356.9 km
Velocity 7.70 km/s
Sub-Earth Point 29.10°N, 134.9°E
Launch Date Feb 8, 2025
Age 1.2 years
Type internet

Technical Details

Classification Payload
Mass 960.00 kg
Dry Mass 910.00 kg
Total Mass 960.00 kg
Length 0.30 m
Diameter 4.10 m
Span 29.00 m
Shape Box + pan
Manufacturer SPXS
Bus Type Starlink V2MD
Phase Status In Orbit
Owner/State SPXS/US

Most Searched